Regional Weather Roundup
Issued by NWS

Home | Current Version | Previous Version | Graphics & Text | Print | Product List | Glossary On
Versions: 1 2 3 4 5 6 7 8 9 10 11 12 13 14 15 16 17 18 19 20 21 22 23 24 25 26 27 28 29 30 31 32 33 34 35 36 37 38 39 40 41 42 43 44 45 46 47 48 49 50
307
ASUS45 KBOI 190810
RWRID

IDAHO REGIONAL WEATHER ROUNDUP
NATIONAL WEATHER SERVICE BOISE ID
100 AM MST THU JAN 19 2017

NOTE: "FAIR" INDICATES FEW OR NO CLOUDS BELOW 12000 FEET
WITH NO SIGNIFICANT WEATHER AND/OR OBSTRUCTIONS TO VISIBILITY

IDZ012-014-190900-
SOUTHWEST IDAHO


CITY           SKY/WX    TMP DP  RH WIND       PRES   REMARKS
BOISE          CLOUDY    37  34  89 SE12      29.64F WCI  29
CALDWELL       LGT RAIN  34  32  92 SE22      29.67F WCI  22
MOUNTAIN HOME  DRIZZLE   34  34 100 E20       29.69F WCI  22
$$

IDZ016-017-190900-
SOUTHCENTRAL IDAHO


CITY           SKY/WX    TMP DP  RH WIND       PRES   REMARKS
BURLEY         FLURRIES  35  29  78 S18G31    29.71F WCI  24
JEROME         LGT SNOW  27  26  96 NE17      29.72F FOG     WCI  14
TWIN FALLS     MIX PCPN  35  31  85 S25G31    29.65F WCI  23
$$

IDZ019>023-190900-
SOUTHEAST IDAHO


CITY           SKY/WX    TMP DP  RH WIND       PRES   REMARKS
IDAHO FALLS    LGT SNOW  20  18  92 N7        29.81F FOG     WCI  11
POCATELLO      LGT SNOW  23  22  96 N7        29.79F FOG     WCI  15
REXBURG        CLOUDY    20  16  84 SW3       29.82R
$$

IDZ006-010-011-018-031-032-190900-
CENTRAL IDAHO MOUNTAINS


CITY           SKY/WX    TMP DP  RH WIND       PRES   REMARKS
MCCALL         LGT SNOW  33  31  92 SE8       29.59S FOG     WCI  26
HAILEY         LGT SNOW  28  28 100 CALM      29.76F
STANLEY          N/A     33  31  92 SE8       29.64F WCI  26
SALMON         CLOUDY    18  12  79 CALM      29.69F
CHALLIS        CLOUDY    18  17  96 S3        29.69F
$$

IDZ002-004-006-007-026-190900-
NORTHERN IDAHO


CITY           SKY/WX    TMP DP  RH WIND       PRES   REMARKS
LEWISTON       CLOUDY    37  32  82 E5        29.56S WCI  33
LOWELL           N/A     33  31  92 CALM      29.60F
COEUR D`ALENE  MIX PCPN  37  36  96 CALM      29.50F
MULLAN PASS    LGT SNOW  32  29  88 S9        29.46S VSB 3/4 WCI  24
$$




USA.gov is the U.S. government's official web portal to all federal, state and local government web resources and services.